Location: Tucson
(32.2217°N, 110.9265°W)
Time: 01:14:00
(UTC-07:00)

Tiros 1 - Pass Details

Date: 29 October 2021
Orbit: 630 x 663 km, 48.4° (Epoch: 07 December)

Event Time Altitude Azimuth Distance (km) Brightness Sun altitude
Rises 08:51:49 0° 262° (W) 2,985 10.2 24.5°
Reaches altitude 10° 08:54:29 10° 274° (W) 2,073 9.4 24.9°
Maximum altitude 08:58:32 27° 332° (NNW) 1,274 8.4 25.6°
Drops below altitude 10° 09:02:34 10° 30° (NNE) 2,067 9.7 26.3°
Sets 09:05:14 0° 43° (NE) 2,975 10.6 26.7°
